Weather History for Crosby, ND

Change the Weather History Date:

Friday, May 2, 2014

  Actual Average (KISN) Record (KISN)
Temperature  
Mean Temperature 48 °F 50 °F  
Max Temperature 57 °F 64 °F 94 °F (1982)
Min Temperature 39 °F 36 °F 16 °F (1911)
Degree Days  
Heating Degree Days 17 15  
Month to date heating degree days 31  
Since 1 July heating degree days 8556  
Cooling Degree Days 0 0  
Month to date cooling degree days 0  
Year to date cooling degree days 1  
Moisture  
Dew Point 38 °F    
Average Humidity 75    
Maximum Humidity 100    
Minimum Humidity 38    
Precipitation  
Precipitation 0.00 in 0.05 in 1.17 in (1894)
Month to date precipitation 0.10  
Year to date precipitation 2.79  
Sea Level Pressure  
Sea Level Pressure 29.88 in    
Wind  
Wind Speed 13 mph (NW)    
Max Wind Speed 23 mph    
Max Gust Speed 34 mph    
T = Trace of Precipitation, MM = Missing Value Source: NWS Daily Summary

Daily Weather History Graph

Daily Weather History Graph

Search for Another Location

Airport:

Trip Planner

Search our weather history database for the weather conditions in past years. The results will help you decide how hot, cold, wet, or windy it might be!

Date:

Astronomy

May. 02, 2014 Rise Set
Actual Time 6:30 AM CDT 9:10 PM CDT
Civil Twilight 5:55 AM CDT 9:46 PM CDT
Nautical Twilight 5:09 AM CDT 10:32 PM CDT
Astronomical Twilight 4:16 AM CDT 11:26 PM CDT
Moon 9:04 AM CDT (5/2) No Moon Set
Length of Visible Light 15h 51m
Length of Day
14h 39m
Waxing Crescent, 12% of the Moon is Illuminated
May 2
Waxing Crescent
May 6
First Quarter
May 14
Full
May 21
Last Quarter
May 28
New

Hourly Weather History & Observations

Time (CDT) Temp. Windchill Dew Point Humidity Pressure Visibility Wind Dir Wind Speed Gust Speed Precip Events Conditions
12:15 AM 50.0 °F - 44.6 °F 82% 29.85 in - NNW 15.0 mph - N/A   Partly Cloudy
12:35 AM 48.2 °F - 44.6 °F 87% 29.86 in - NNW 15.0 mph 20.7 mph N/A   Unknown
12:55 AM 46.4 °F 40.1 °F 44.6 °F 93% 29.87 in - NNW 15.0 mph - N/A   Unknown
1:15 AM 46.4 °F 40.1 °F 46.4 °F 100% 29.87 in - NNW 15.0 mph - N/A   Unknown
1:35 AM 46.4 °F 40.4 °F 44.6 °F 93% 29.88 in - NW 13.8 mph - N/A   Unknown
1:55 AM 44.6 °F 38.4 °F 44.6 °F 100% 29.88 in - NNW 12.7 mph - N/A   Unknown
2:15 AM 42.8 °F 36.6 °F 42.8 °F 100% 29.88 in - NW 11.5 mph - N/A   Unknown
2:35 AM 41.0 °F 34.3 °F 41.0 °F 100% 29.88 in - NW 11.5 mph - N/A   Unknown
2:55 AM 41.0 °F 34.3 °F 41.0 °F 100% 29.88 in - NW 11.5 mph - N/A   Unknown
3:15 AM 41.0 °F 34.3 °F 41.0 °F 100% 29.88 in - NW 11.5 mph - N/A   Unknown
3:35 AM 41.0 °F 34.3 °F 41.0 °F 100% 29.88 in - NW 11.5 mph - N/A   Unknown
3:55 AM 39.2 °F 32.5 °F 39.2 °F 100% 29.88 in - NW 10.4 mph - N/A   Unknown
4:15 AM 39.2 °F 32.5 °F 39.2 °F 100% 29.88 in - NW 10.4 mph - N/A   Unknown
4:35 AM 39.2 °F 32.5 °F 39.2 °F 100% 29.88 in - NW 10.4 mph - N/A   Unknown
4:55 AM 39.2 °F 33.0 °F 39.2 °F 100% 29.88 in - NW 9.2 mph - N/A   Unknown
5:15 AM 39.2 °F 33.0 °F 39.2 °F 100% 29.87 in - NW 9.2 mph - N/A   Unknown
5:35 AM 39.2 °F 33.6 °F 39.2 °F 100% 29.88 in - WNW 8.1 mph - N/A   Unknown
5:55 AM 39.2 °F 34.2 °F 39.2 °F 100% 29.88 in - NW 6.9 mph - N/A   Unknown
6:15 AM 39.2 °F 33.6 °F 39.2 °F 100% 29.88 in - NW 8.1 mph - N/A   Unknown
6:35 AM 39.2 °F 33.6 °F 39.2 °F 100% 29.88 in - NW 8.1 mph - N/A   Unknown
7:15 AM 39.2 °F 33.0 °F 39.2 °F 100% 29.89 in - WNW 9.2 mph - N/A   Unknown
7:35 AM 41.0 °F 34.7 °F 41.0 °F 100% 29.89 in - WNW 10.4 mph - N/A   Unknown
7:55 AM 41.0 °F 33.9 °F 41.0 °F 100% 29.89 in - WNW 12.7 mph - N/A   Unknown
8:15 AM 44.6 °F 38.4 °F 41.0 °F 87% 29.89 in - NW 12.7 mph - N/A   Unknown
8:35 AM 44.6 °F 38.8 °F 42.8 °F 93% 29.89 in - WNW 11.5 mph - N/A   Unknown
8:55 AM 44.6 °F 37.8 °F 41.0 °F 87% 29.90 in - NW 15.0 mph - N/A   Unknown
9:15 AM 46.4 °F 40.1 °F 41.0 °F 81% 29.89 in - NW 15.0 mph - N/A   Clear
9:35 AM 46.4 °F 40.4 °F 41.0 °F 81% 29.89 in - NW 13.8 mph - N/A   Scattered Clouds
9:55 AM 48.2 °F - 41.0 °F 76% 29.89 in - NNW 15.0 mph - N/A   Mostly Cloudy
10:15 AM 48.2 °F - 42.8 °F 82% 29.89 in - NW 12.7 mph - N/A   Mostly Cloudy
10:35 AM 50.0 °F - 41.0 °F 71% 29.88 in - NW 15.0 mph - N/A   Scattered Clouds
10:55 AM 50.0 °F - 41.0 °F 71% 29.88 in - NNW 16.1 mph - N/A   Clear
11:15 AM 50.0 °F - 42.8 °F 76% 29.89 in - NNW 13.8 mph - N/A   Clear
11:35 AM 50.0 °F - 41.0 °F 71% 29.89 in - NNW 15.0 mph 21.9 mph N/A   Partly Cloudy
11:55 AM 50.0 °F - 41.0 °F 71% 29.89 in - NW 15.0 mph 18.4 mph N/A   Partly Cloudy
12:15 PM 51.8 °F - 39.2 °F 62% 29.89 in - NW 13.8 mph - N/A   Clear
12:35 PM 51.8 °F - 37.4 °F 58% 29.89 in - NW 13.8 mph 18.4 mph N/A   Partly Cloudy
12:55 PM 51.8 °F - 35.6 °F 54% 29.89 in - NW 15.0 mph - N/A   Scattered Clouds
1:15 PM 53.6 °F - 33.8 °F 47% 29.89 in - NNW 13.8 mph - N/A   Partly Cloudy
1:35 PM 51.8 °F - 32.0 °F 47% 29.89 in - NW 13.8 mph - N/A   Clear
1:55 PM 53.6 °F - 32.0 °F 44% 29.88 in - NW 11.5 mph - N/A   Clear
2:15 PM 55.4 °F - 32.0 °F 41% 29.87 in - WNW 11.5 mph - N/A   Partly Cloudy
2:35 PM 55.4 °F - 32.0 °F 41% 29.86 in - WNW 16.1 mph 24.2 mph N/A   Partly Cloudy
2:55 PM 57.2 °F - 32.0 °F 38% 29.85 in - NW 19.6 mph 26.5 mph N/A   Clear
3:15 PM 57.2 °F - 32.0 °F 38% 29.84 in - WNW 13.8 mph 26.5 mph N/A   Partly Cloudy
3:35 PM 57.2 °F - 32.0 °F 38% 29.84 in - WNW 10.4 mph 25.3 mph N/A   Mostly Cloudy
3:55 PM 57.2 °F - 32.0 °F 38% 29.83 in - NW 15.0 mph 21.9 mph N/A   Mostly Cloudy
4:15 PM 57.2 °F - 32.0 °F 38% 29.83 in - NW 19.6 mph 24.2 mph N/A   Mostly Cloudy
4:35 PM 55.4 °F - 32.0 °F 41% 29.84 in - WNW 23.0 mph 32.2 mph N/A   Mostly Cloudy
4:55 PM 53.6 °F - 39.2 °F 58% 29.85 in - NNW 21.9 mph 27.6 mph N/A   Overcast
5:15 PM 50.0 °F - 39.2 °F 66% 29.86 in - NNW 21.9 mph 34.5 mph N/A   Mostly Cloudy
5:35 PM 48.2 °F - 44.6 °F 87% 29.86 in - NNW 13.8 mph 26.5 mph N/A   Unknown
5:55 PM 50.0 °F - 42.8 °F 76% 29.86 in - NW 13.8 mph - N/A   Mostly Cloudy
6:15 PM 50.0 °F - 41.0 °F 71% 29.86 in - NW 17.3 mph 21.9 mph N/A   Clear
6:35 PM 51.8 °F - 37.4 °F 58% 29.86 in - NNW 21.9 mph 27.6 mph N/A   Clear
6:55 PM 51.8 °F - 33.8 °F 50% 29.86 in - NNW 20.7 mph 29.9 mph N/A   Clear
7:15 PM 50.0 °F - 32.0 °F 50% 29.86 in - NNW 21.9 mph - N/A   Clear
7:35 PM 51.8 °F - 32.0 °F 47% 29.86 in - NNW 20.7 mph 26.5 mph N/A   Clear
7:55 PM 50.0 °F - 32.0 °F 50% 29.86 in - NNW 20.7 mph - N/A   Clear
8:15 PM 50.0 °F - 32.0 °F 50% 29.87 in - NNW 17.3 mph 21.9 mph N/A   Clear
8:35 PM 48.2 °F - 32.0 °F 54% 29.87 in - NNW 15.0 mph 21.9 mph N/A   Clear
8:55 PM 48.2 °F - 32.0 °F 54% 29.87 in - NNW 12.7 mph - N/A   Clear
9:15 PM 46.4 °F 41.9 °F 33.8 °F 62% 29.87 in - NNW 9.2 mph - N/A   Clear
9:35 PM 42.8 °F 38.6 °F 35.6 °F 76% 29.88 in - NW 6.9 mph - N/A   Clear
9:55 PM 41.0 °F 35.8 °F 33.8 °F 76% 29.89 in - WNW 8.1 mph - N/A   Clear
10:15 PM 39.2 °F 33.6 °F 35.6 °F 87% 29.89 in - WNW 8.1 mph - N/A   Unknown
10:35 PM 39.2 °F 33.6 °F 35.6 °F 87% 29.89 in - West 8.1 mph - N/A   Unknown
10:55 PM 39.2 °F 33.6 °F 35.6 °F 87% 29.89 in - West 8.1 mph - N/A   Unknown
11:15 PM 39.2 °F 33.6 °F 35.6 °F 87% 29.89 in - West 8.1 mph - N/A   Unknown
11:35 PM 39.2 °F 33.6 °F 35.6 °F 87% 29.89 in - West 8.1 mph - N/A   Unknown
11:55 PM 39.2 °F 33.6 °F 35.6 °F 87% 29.89 in - West 8.1 mph - N/A   Unknown